N5JLR-2 Weather Reports


Display with metric or nautical units.
time (UTC)temp
F
wind
direction
speed
MPH
gust
MPH
rain 1hr
in
rain 24hr
in
rain mn
in
humidity
%
barometer
mb
20260506221530 91 139 7.0 16.0 0.00 0.00 0.00 74 1005.9
20260506220037 92 77 9.0 17.0 0.00 0.00 0.00 72 1005.9
20260506214528 93 156 7.0 14.0 0.00 0.00 0.00 69 1005.8
20260506213032 94 188 5.0 12.0 0.00 0.00 0.00 66 1005.9
20260506211532 93 176 6.0 14.0 0.00 0.00 0.00 68 1005.8
20260506210032 93 177 8.0 18.0 0.00 0.00 0.00 69 1005.9
20260506204530 93 159 7.0 15.0 0.00 0.00 0.00 69 1006.1
20260506203029 92 166 7.0 17.0 0.00 0.00 0.00 70 1006.5
20260506201530 92 184 5.0 13.0 0.00 0.00 0.00 71 1006.8
20260506200030 91 159 8.0 15.0 0.00 0.00 0.00 72 1006.9
20260506194528 91 199 8.0 17.0 0.00 0.00 0.00 73 1007.2
20260506193028 91 120 7.0 19.0 0.00 0.00 0.00 73 1007.2
20260506191528 91 148 9.0 19.0 0.00 0.00 0.00 72 1007.3
20260506190030 91 157 7.0 17.0 0.00 0.00 0.00 74 1007.4
20260506184529 90 186 10.0 17.0 0.00 0.00 0.00 75 1007.5
20260506183030 90 202 9.0 25.0 0.00 0.00 0.00 76 1007.6
20260506181528 89 140 7.0 20.0 0.00 0.00 0.00 77 1007.9
20260506180030 88 177 10.0 19.0 0.00 0.00 0.00 79 1008.0
20260506174529 87 162 9.0 21.0 0.00 0.00 0.00 79 1008.2
20260506173028 86 149 8.0 19.0 0.00 0.00 0.00 81 1008.3
20260506171528 86 143 6.0 16.0 0.00 0.00 0.00 81 1008.5
20260506170028 86 155 8.0 17.0 0.00 0.00 0.00 81 1008.4
20260506164530 86 175 9.0 18.0 0.00 0.00 0.00 81 1008.5
20260506163032 85 117 8.0 18.0 0.00 0.00 0.00 82 1008.5
20260506161526 85 157 8.0 18.0 0.00 0.00 0.00 82 1008.4
20260506160028 84 166 5.0 12.0 0.00 0.00 0.00 85 1008.2
20260506154532 84 157 7.0 15.0 0.00 0.00 0.00 86 1008.2
20260506153029 83 177 6.0 13.0 0.00 0.00 0.00 87 1008.2
20260506151529 82 148 4.0 12.0 0.00 0.00 0.00 89 1008.2
20260506150027 81 144 6.0 10.0 0.00 0.00 0.00 89 1008.5
20260506144534 81 146 4.0 9.0 0.00 0.00 0.00 89 1008.7
20260506143031 81 162 6.0 11.0 0.00 0.00 0.00 90 1008.7
20260506141535 81 182 3.0 9.0 0.00 0.00 0.00 91 1008.8
20260506140030 80 163 4.0 9.0 0.00 0.00 0.00 91 1008.8
20260506134527 80 169 4.0 8.0 0.00 0.00 0.00 92 1008.7
20260506133028 79 198 5.0 11.0 0.00 0.00 0.00 92 1008.7
20260506131528 79 190 5.0 10.0 0.00 0.00 0.00 92 1008.4
20260506130030 79 165 4.0 11.0 0.00 0.00 0.00 93 1008.2
20260506124529 79 150 3.0 13.0 0.00 0.00 0.00 93 1007.7
20260506123029 79 144 4.0 10.0 0.00 0.00 0.00 94 1007.6
20260506121529 78 149 5.0 11.0 0.00 0.00 0.00 94 1007.4
20260506120031 78 131 6.0 15.0 0.00 0.00 0.00 94 1006.9
20260506114527 78 165 8.0 15.0 0.00 0.00 0.00 95 1006.7
20260506113030 78 127 6.0 16.0 0.00 0.00 0.00 95 1006.5
20260506111527 78 162 7.0 15.0 0.00 0.00 0.00 95 1006.2
20260506110027 78 126 8.0 15.0 0.00 0.00 0.00 95 1006.0
20260506104529 78 129 7.0 14.0 0.00 0.00 0.00 94 1005.9
20260506103030 78 130 8.0 16.0 0.00 0.00 0.00 94 1006.0
20260506101528 78 139 6.0 16.0 0.00 0.00 0.00 94 1006.0
20260506100027 78 134 8.0 15.0 0.00 0.00 0.00 94 1006.1
20260506094529 78 144 8.0 17.0 0.00 0.00 0.00 95 1005.8
20260506093033 78 167 7.0 15.0 0.00 0.00 0.00 95 1006.0
20260506091528 78 160 6.0 15.0 0.00 0.00 0.00 95 1006.2
20260506090028 77 151 6.0 12.0 0.00 0.00 0.00 95 1006.2
20260506084534 77 140 6.0 12.0 0.00 0.00 0.00 95 1006.3
20260506083030 77 119 6.0 13.0 0.00 0.00 0.00 95 1006.3
20260506081528 77 137 7.0 14.0 0.00 0.00 0.00 95 1006.5
20260506073028 78 189 8.0 14.0 0.00 0.00 0.00 94 1006.9
20260506071529 78 136 7.0 14.0 0.00 0.00 0.00 94 1006.9
20260506061529 78 130 8.0 14.0 0.00 0.00 0.00 93 1007.4
20260506044538 78 126 7.0 14.0 0.00 0.00 0.00 91 1008.6
20260506043027 79 144 10.0 17.0 0.00 0.00 0.00 91 1008.4
20260506041541 79 138 10.0 17.0 0.00 0.00 0.00 91 1008.5
20260506040033 79 130 9.0 17.0 0.00 0.00 0.00 90 1008.5
20260506034532 79 136 8.0 18.0 0.00 0.00 0.00 90 1008.3
20260506033028 79 112 9.0 15.0 0.00 0.00 0.00 90 1008.2
20260506031529 79 161 7.0 16.0 0.00 0.00 0.00 91 1008.0
20260506030028 79 163 7.0 16.0 0.00 0.00 0.00 91 1007.7
20260506024533 79 136 7.0 16.0 0.00 0.00 0.00 90 1007.4
20260506023030 79 132 8.0 18.0 0.00 0.00 0.00 90 1007.4
20260506021528 79 144 9.0 18.0 0.00 0.00 0.00 90 1007.1
20260506020030 79 136 9.0 19.0 0.00 0.00 0.00 90 1006.7
20260506014528 80 135 10.0 18.0 0.00 0.00 0.00 89 1006.5
20260506013032 80 135 8.0 22.0 0.00 0.00 0.00 88 1006.2
20260506011539 80 184 11.0 20.0 0.00 0.00 0.00 88 1006.0
20260506010030 80 134 10.0 22.0 0.00 0.00 0.00 87 1005.7
20260506004540 80 117 13.0 22.0 0.00 0.00 0.00 87 1005.7
20260506003031 81 142 14.0 23.0 0.00 0.00 0.00 86 1005.7
20260506001531 81 97 12.0 20.0 0.00 0.00 0.00 86 1005.6
20260506000028 81 119 11.0 25.0 0.00 0.00 0.00 86 1005.7
20260505234530 82 167 13.0 23.0 0.00 0.00 0.00 85 1005.6
20260505233033 82 150 10.0 25.0 0.00 0.00 0.00 84 1005.7
20260505231537 82 145 14.0 25.0 0.00 0.00 0.00 83 1005.6
20260505230028 83 128 14.0 24.0 0.00 0.00 0.00 82 1005.5
20260505224528 83 142 14.0 26.0 0.00 0.00 0.00 82 1005.7
20260505223033 83 173 12.0 27.0 0.00 0.00 0.00 80 1006.0